Weather History for CYYZ - December, 2012

Change the Weather History Date:

Saturday, December 22, 2012

  Actual Average Record
Temperature  
Mean Temperature 30 °F -  
Max Temperature 34 °F 29 °F 44 °F (2006)
Min Temperature 27 °F 14 °F 3 °F (2000)
Degree Days  
Heating Degree Days 34    
Moisture  
Dew Point 20 °F    
Average Humidity 62    
Maximum Humidity 86    
Minimum Humidity 37    
Precipitation  
Precipitation 0.00 in 0.07 in - ()
Sea Level Pressure  
Sea Level Pressure 29.76 in    
Wind  
Wind Speed 21 mph ()    
Max Wind Speed 33 mph    
Max Gust Speed 41 mph    
Visibility 13.7 miles    
Events Snow    
Averages and records for this station are not official NWS values.
T = Trace of Precipitation, MM = Missing Value Source: Averaged Metar Reports

Daily Weather History Graph

Daily Weather History Graph

Search for Another Location

Airport or City:

Trip Planner

Search our weather history database for the weather conditions in past years. The results will help you decide how hot, cold, wet, or windy it might be!

Date:

Astronomy

Dec. 22, 2012 Rise Set
Actual Time 7:49 AM EST 4:45 PM EST
Civil Twilight 7:16 AM EST 5:18 PM EST
Nautical Twilight 6:40 AM EST 5:54 PM EST
Astronomical Twilight 6:05 AM EST 6:29 PM EST
Moon 1:07 PM EST (12/22) 2:27 AM EST (12/22)
Length of Visible Light 10h 01m
Length of Day
8h 55m
Waxing Gibbous, 73% of the Moon is Illuminated
Dec 22
Waxing Gibbous
Dec 28
Full
Jan 4
Last Quarter
Jan 11
New
Jan 18
First Quarter

Hourly Weather History & Observations

Time (EST) Temp. Windchill Dew Point Humidity Pressure Visibility Wind Dir Wind Speed Gust Speed Precip Events Conditions
12:00 AM 32.0 °F 18.6 °F 23.0 °F 69% 29.47 in 12.0 mi NNW 25.3 mph 32.2 mph N/A Snow Light Snow Showers
1:00 AM 31 °F - 22 °F 60% 29.49 in 12 mi NW 21.9 mph - - Snow Light Snow Showers
1:00 AM 30.2 °F 16.2 °F 23.0 °F 75% 29.49 in 12.0 mi NW 25.3 mph 31.1 mph N/A Snow Light Snow Showers
2:00 AM 28.4 °F 16.2 °F 24.8 °F 86% 29.53 in 10.0 mi NW 17.3 mph 27.6 mph N/A Snow Light Snow Showers
3:00 AM 30.2 °F 16.2 °F 21.2 °F 69% 29.57 in 10.0 mi NW 25.3 mph 34.5 mph N/A Snow Light Snow Showers
4:00 AM 28.4 °F 14.1 °F 19.4 °F 69% 29.61 in 10.0 mi WNW 24.2 mph 29.9 mph N/A Snow Light Snow Showers
5:00 AM 26.6 °F 11.7 °F 17.6 °F 69% 29.64 in 12.0 mi NW 24.2 mph 36.8 mph N/A Snow Light Snow Showers
6:00 AM 26.6 °F 9.6 °F 17.6 °F 69% 29.68 in 12.0 mi NW 33.4 mph 41.4 mph N/A Snow Light Snow Showers
6:44 AM 26.6 °F 10.6 °F - N/A% - 12.0 mi WNW 28.8 mph 34.5 mph N/A   Overcast
7:00 AM 28 °F - 17 °F 50% 29.73 in 12 mi NW 23.0 mph - - Snow Light Snow Showers
7:00 AM 28.4 °F 13.5 °F 17.6 °F 64% 29.73 in 12.0 mi WNW 26.5 mph 33.4 mph N/A   Overcast
8:00 AM 28.4 °F 13.0 °F 15.8 °F 59% 29.75 in 15.0 mi NW 28.8 mph 40.3 mph N/A   Overcast
9:00 AM 28.4 °F 15.1 °F 17.6 °F 64% 29.78 in 15.0 mi NW 20.7 mph - N/A   Mostly Cloudy
10:00 AM 30.2 °F 17.1 °F 17.6 °F 60% 29.81 in 15.0 mi NW 21.9 mph 33.4 mph N/A   Mostly Cloudy
11:00 AM 32.0 °F 19.5 °F 17.6 °F 55% 29.82 in 15.0 mi NW 21.9 mph 33.4 mph N/A   Mostly Cloudy
12:00 PM 32.0 °F 18.1 °F 17.6 °F 55% 29.81 in 15.0 mi NW 27.6 mph 36.8 mph N/A   Mostly Cloudy
1:00 PM 34 °F - 18 °F 37% 29.81 in 15 mi NW 27.6 mph - -   Partly Cloudy
1:00 PM 33.8 °F 20.1 °F 17.6 °F 52% 29.81 in 15.0 mi NW 29.9 mph - N/A   Scattered Clouds
2:00 PM 33.8 °F 21.0 °F 17.6 °F 52% 29.83 in 15.0 mi WNW 25.3 mph 32.2 mph N/A   Scattered Clouds
3:00 PM 33.8 °F 21.9 °F 17.6 °F 52% 29.84 in 15.0 mi NW 21.9 mph 33.4 mph N/A   Scattered Clouds
4:00 PM 32.0 °F 20.1 °F 17.6 °F 55% 29.87 in 15.0 mi WNW 19.6 mph 34.5 mph N/A   Partly Cloudy
5:00 PM 32.0 °F 20.8 °F 21.2 °F 64% 29.89 in 15.0 mi WNW 17.3 mph - N/A   Mostly Cloudy
6:00 PM 32.0 °F 20.5 °F 21.2 °F 64% 29.91 in 15.0 mi West 18.4 mph 25.3 mph N/A   Mostly Cloudy
7:00 PM 32 °F - 21 °F 52% 29.91 in 15 mi West 19.6 mph - -   Overcast
7:00 PM 32.0 °F 20.1 °F 21.2 °F 64% 29.91 in 15.0 mi West 19.6 mph 25.3 mph N/A   Overcast
8:00 PM 32.0 °F 20.5 °F 21.2 °F 64% 29.92 in 15.0 mi WNW 18.4 mph 24.2 mph N/A   Mostly Cloudy
9:00 PM 32.0 °F 20.5 °F 21.2 °F 64% 29.93 in 15.0 mi West 18.4 mph - N/A   Mostly Cloudy
10:00 PM 32.0 °F 21.2 °F 21.2 °F 64% 29.92 in 15.0 mi West 16.1 mph - N/A   Mostly Cloudy
11:00 PM 32.0 °F 23.6 °F 23.0 °F 69% 29.93 in 15.0 mi WSW 10.4 mph - N/A   Mostly Cloudy